Weather History for KMMH - October, 2013

Change the Weather History Date:

Wednesday, October 2, 2013

  Actual Average (KBIH) Record (KBIH)
Temperature  
Mean Temperature 47 °F 62 °F  
Max Temperature 66 °F 82 °F 95 °F (1980)
Min Temperature 28 °F 42 °F 27 °F (1946)
Degree Days  
Heating Degree Days 18 4  
Month to date heating degree days 8  
Since 1 July heating degree days 51  
Cooling Degree Days 0 1  
Month to date cooling degree days 2  
Year to date cooling degree days 1098  
Moisture  
Dew Point 21 °F    
Average Humidity 38    
Maximum Humidity 69    
Minimum Humidity 12    
Precipitation  
Precipitation 0.00 in 0.01 in 0.16 in (1974)
Month to date precipitation 0.02  
Year to date precipitation 3.58  
Snow  
Snow 0.00 in 0.00 in - ()
Month to date snowfall 0.0  
Since 1 July snowfall 0.0  
Since 1 September snowfall 0.0  
Snow Depth -    
Sea Level Pressure  
Sea Level Pressure 30.08 in    
Wind  
Wind Speed 5 mph (West)    
Max Wind Speed 28 mph    
Max Gust Speed 37 mph    
Visibility 10 miles    
Events      
T = Trace of Precipitation, MM = Missing Value Source: NWS Daily Summary

Daily Weather History Graph

Daily Weather History Graph

Search for Another Location

Airport or City:

Trip Planner

Search our weather history database for the weather conditions in past years. The results will help you decide how hot, cold, wet, or windy it might be!

Date:

Astronomy

Oct. 02, 2013 Rise Set
Actual Time 6:52 AM PDT 6:36 PM PDT
Civil Twilight 6:25 AM PDT 7:02 PM PDT
Nautical Twilight 5:55 AM PDT 7:32 PM PDT
Astronomical Twilight 5:25 AM PDT 8:03 PM PDT
Moon 4:32 AM PDT (10/2) 5:13 PM PDT (10/2)
Length of Visible Light 12h 36m
Length of Day
11h 44m
Waning Crescent, 6% of the Moon is Illuminated
Oct 2
Waning Crescent
Oct 4
New
Oct 11
First Quarter
Oct 18
Full
Oct 26
Last Quarter

Hourly Weather History & Observations

Time (PDT) Temp. Windchill Dew Point Humidity Pressure Visibility Wind Dir Wind Speed Gust Speed Precip Events Conditions
12:15 AM 41.0 °F - 26.6 °F 57% 30.12 in 10.0 mi Calm Calm - N/A   Clear
12:35 AM 41.0 °F - 26.6 °F 57% 30.12 in 10.0 mi Calm Calm - N/A   Clear
12:55 AM 41.0 °F - 24.8 °F 53% 30.11 in 10.0 mi Calm Calm - N/A   Clear
1:15 AM 41.0 °F - 24.8 °F 53% 30.11 in 10.0 mi Calm Calm - N/A   Clear
1:35 AM 41.0 °F - 24.8 °F 53% 30.11 in 10.0 mi Calm Calm - N/A   Clear
1:55 AM 41.0 °F - 24.8 °F 53% 30.11 in 10.0 mi Calm Calm - N/A   Clear
2:15 AM 39.2 °F - 23.0 °F 52% 30.11 in 10.0 mi Calm Calm - N/A   Clear
2:35 AM 37.4 °F - 23.0 °F 56% 30.10 in 10.0 mi Calm Calm - N/A   Clear
2:55 AM 39.2 °F 37.0 °F 24.8 °F 56% 30.10 in 10.0 mi SSE 3.5 mph - N/A   Clear
3:15 AM 33.8 °F - 21.2 °F 60% 30.09 in 10.0 mi Calm Calm - N/A   Clear
3:35 AM 32.0 °F - 21.2 °F 64% 30.09 in 10.0 mi Calm Calm - N/A   Clear
3:55 AM 32.0 °F - 21.2 °F 64% 30.08 in 10.0 mi Calm Calm - N/A   Clear
4:15 AM 30.2 °F - 21.2 °F 69% 30.09 in 10.0 mi Calm Calm - N/A   Clear
4:35 AM 32.0 °F - 21.2 °F 64% 30.08 in 10.0 mi Calm Calm - N/A   Clear
4:55 AM 33.8 °F 30.8 °F 23.0 °F 65% 30.08 in 10.0 mi NNW 3.5 mph - N/A   Clear
5:15 AM 32.0 °F - 21.2 °F 64% 30.08 in 10.0 mi Calm Calm - N/A   Clear
5:35 AM 30.2 °F - 21.2 °F 69% 30.08 in 10.0 mi Calm Calm - N/A   Clear
5:55 AM 30.2 °F - 21.2 °F 69% 30.08 in 10.0 mi Calm Calm - N/A   Clear
6:15 AM 30.2 °F - 21.2 °F 69% 30.08 in 10.0 mi Calm Calm - N/A   Clear
6:35 AM 33.8 °F - 23.0 °F 65% 30.08 in 10.0 mi Calm Calm - N/A   Clear
6:55 AM 30.2 °F - 21.2 °F 69% 30.09 in 10.0 mi Calm Calm - N/A   Clear
7:15 AM 28.4 °F - 19.4 °F 69% 30.09 in 10.0 mi Calm Calm - N/A   Clear
7:35 AM 33.8 °F - 23.0 °F 65% 30.09 in 10.0 mi Calm Calm - N/A   Clear
7:55 AM 37.4 °F - 24.8 °F 60% 30.09 in 10.0 mi Calm Calm - N/A   Clear
8:15 AM 44.6 °F 40.7 °F 26.6 °F 49% 30.09 in 10.0 mi SSE 6.9 mph - N/A   Clear
8:35 AM 44.6 °F 42.2 °F 28.4 °F 53% 30.10 in 10.0 mi SE 4.6 mph - N/A   Clear
8:55 AM 48.2 °F - 28.4 °F 46% 30.10 in 10.0 mi SSE 4.6 mph - N/A   Clear
9:15 AM 53.6 °F - 26.6 °F 35% 30.10 in 10.0 mi SE 6.9 mph - N/A   Clear
9:35 AM 57.2 °F - 26.6 °F 31% 30.10 in 10.0 mi East 4.6 mph - N/A   Clear
9:55 AM 59.0 °F - 21.2 °F 23% 30.10 in 10.0 mi East 4.6 mph - N/A   Clear
10:15 AM 60.8 °F - 24.8 °F 25% 30.09 in 10.0 mi ESE 5.8 mph - N/A   Clear
10:35 AM 62.6 °F - 14.0 °F 15% 30.08 in 10.0 mi SSE 6.9 mph - N/A   Clear
10:55 AM 62.6 °F - 15.8 °F 16% 30.09 in 10.0 mi WSW 3.5 mph 35.7 mph N/A   Clear
11:15 AM 64.4 °F - 17.6 °F 16% 30.10 in 10.0 mi West 4.6 mph 16.1 mph N/A   Clear
11:35 AM 64.4 °F - 17.6 °F 16% 30.08 in 10.0 mi SSW 17.3 mph 21.9 mph N/A   Clear
11:55 AM 66.2 °F - 17.6 °F 15% 30.08 in 10.0 mi SW 16.1 mph 28.8 mph N/A   Clear
12:15 PM 64.4 °F - 15.8 °F 15% 30.08 in 10.0 mi SW 15.0 mph 24.2 mph N/A   Clear
12:35 PM 64.4 °F - 15.8 °F 15% 30.07 in 10.0 mi SW 10.4 mph 18.4 mph N/A   Clear
12:55 PM 66.2 °F - 17.6 °F 15% 30.06 in 10.0 mi SW 18.4 mph 32.2 mph N/A   Clear
1:15 PM 66.2 °F - 19.4 °F 17% 30.07 in 10.0 mi WNW 11.5 mph 27.6 mph N/A   Clear
1:35 PM 66.2 °F - 17.6 °F 15% 30.07 in 10.0 mi West 16.1 mph 31.1 mph N/A   Clear
1:55 PM 66.2 °F - 15.8 °F 14% 30.07 in 10.0 mi West 27.6 mph 35.7 mph N/A   Clear
2:15 PM 66.2 °F - 17.6 °F 15% 30.07 in 10.0 mi West 25.3 mph 36.8 mph N/A   Clear
2:35 PM 66.2 °F - 14.0 °F 13% 30.07 in 10.0 mi WSW 17.3 mph 31.1 mph N/A   Clear
2:55 PM 64.4 °F - 12.2 °F 13% 30.07 in 10.0 mi WNW 19.6 mph 25.3 mph N/A   Clear
3:15 PM 64.4 °F - 15.8 °F 15% 30.07 in 10.0 mi WSW 15.0 mph 25.3 mph N/A   Clear
3:35 PM 64.4 °F - 12.2 °F 13% 30.07 in 10.0 mi WNW 18.4 mph 28.8 mph N/A   Clear
3:55 PM 64.4 °F - 12.2 °F 13% 30.07 in 10.0 mi West 16.1 mph 27.6 mph N/A   Clear
4:15 PM 64.4 °F - 10.4 °F 12% 30.07 in 10.0 mi West 19.6 mph 28.8 mph N/A   Clear
4:35 PM 62.6 °F - 17.6 °F 18% 30.06 in 10.0 mi West 23.0 mph 29.9 mph N/A   Clear
4:55 PM 62.6 °F - 17.6 °F 18% 30.06 in 10.0 mi West 19.6 mph 24.2 mph N/A   Clear
5:15 PM 62.6 °F - 17.6 °F 18% 30.06 in 10.0 mi WNW 16.1 mph 21.9 mph N/A   Clear
5:35 PM 60.8 °F - 14.0 °F 16% 30.06 in 10.0 mi West 13.8 mph 20.7 mph N/A   Clear
5:55 PM 60.8 °F - 19.4 °F 20% 30.06 in 10.0 mi NW 9.2 mph 20.7 mph N/A   Clear
6:15 PM 59.0 °F - 19.4 °F 22% 30.06 in 10.0 mi NW 13.8 mph 20.7 mph N/A   Clear
6:35 PM 55.4 °F - 23.0 °F 29% 30.05 in 10.0 mi NNW 15.0 mph 24.2 mph N/A   Clear
6:55 PM 53.6 °F - 24.8 °F 33% 30.06 in 10.0 mi NW 12.7 mph 21.9 mph N/A   Clear
7:15 PM 51.8 °F - 26.6 °F 38% 30.07 in 10.0 mi NW 11.5 mph 20.7 mph N/A   Clear
7:35 PM 50.0 °F - 28.4 °F 43% 30.07 in 10.0 mi NNW 16.1 mph 19.6 mph N/A   Clear
7:55 PM 50.0 °F - 26.6 °F 40% 30.07 in 10.0 mi NW 12.7 mph 19.6 mph N/A   Clear
8:15 PM 50.0 °F - 26.6 °F 40% 30.08 in 10.0 mi WNW 13.8 mph 20.7 mph N/A   Clear
8:35 PM 50.0 °F - 23.0 °F 35% 30.08 in 10.0 mi West 8.1 mph 16.1 mph N/A   Clear
8:55 PM 50.0 °F - 24.8 °F 37% 30.09 in 10.0 mi West 9.2 mph - N/A   Clear
9:15 PM 48.2 °F - 23.0 °F 37% 30.09 in 10.0 mi West 4.6 mph - N/A   Clear
9:35 PM 46.4 °F - 23.0 °F 40% 30.09 in 10.0 mi Calm Calm - N/A   Clear
9:55 PM 44.6 °F - 21.2 °F 39% 30.09 in 10.0 mi Calm Calm - N/A   Clear
10:15 PM 44.6 °F 43.1 °F 19.4 °F 37% 30.09 in 10.0 mi SE 3.5 mph - N/A   Clear
10:35 PM 42.8 °F - 17.6 °F 36% 30.09 in 10.0 mi Calm Calm - N/A   Clear
10:55 PM 41.0 °F 37.1 °F 15.8 °F 36% 30.09 in 10.0 mi SE 5.8 mph - N/A   Clear
11:15 PM 41.0 °F - 19.4 °F 42% 30.09 in 10.0 mi Calm Calm - N/A   Clear
11:35 PM 41.0 °F 39.0 °F 15.8 °F 36% 30.09 in 10.0 mi SW 3.5 mph - N/A   Clear
11:55 PM 41.0 °F 39.0 °F 17.6 °F 39% 30.08 in 10.0 mi SW 3.5 mph - N/A   Clear